Year,Month,Day,Hour,Minute,Value (Times are PST for temperature in C)
2013,10,22,00,00,4.90
2013,10,22,00,01,4.90
2013,10,22,00,02,4.90
2013,10,22,00,03,4.90
2013,10,22,00,04,4.90
2013,10,22,00,05,4.80
2013,10,22,00,06,4.80
2013,10,22,00,07,4.80
2013,10,22,00,08,4.80
2013,10,22,00,09,4.80
2013,10,22,00,10,4.80
2013,10,22,00,11,4.80
2013,10,22,00,12,4.80
2013,10,22,00,13,4.80
2013,10,22,00,14,4.80
2013,10,22,00,15,4.80
2013,10,22,00,16,4.80
2013,10,22,00,17,4.70
2013,10,22,00,18,4.70
2013,10,22,00,19,4.70
2013,10,22,00,20,4.70
2013,10,22,00,21,4.70
2013,10,22,00,22,4.70
2013,10,22,00,23,4.60
2013,10,22,00,24,4.60
2013,10,22,00,25,4.60
2013,10,22,00,26,4.60
2013,10,22,00,27,4.60
2013,10,22,00,28,4.50
2013,10,22,00,29,4.50
2013,10,22,00,30,4.40
2013,10,22,00,31,4.40
2013,10,22,00,32,4.40
2013,10,22,00,33,4.40
2013,10,22,00,34,4.40
2013,10,22,00,35,4.40
2013,10,22,00,36,4.40
2013,10,22,00,37,4.30
2013,10,22,00,38,4.30
2013,10,22,00,39,4.30
2013,10,22,00,40,4.30
2013,10,22,00,41,4.30
2013,10,22,00,42,4.30
2013,10,22,00,43,4.30
2013,10,22,00,44,4.30
2013,10,22,00,45,4.20
2013,10,22,00,46,4.20
2013,10,22,00,47,4.20
2013,10,22,00,48,4.20
2013,10,22,00,49,4.20
2013,10,22,00,50,4.20
2013,10,22,00,51,4.20
2013,10,22,00,52,4.20
2013,10,22,00,53,4.20
2013,10,22,00,54,4.20
2013,10,22,00,55,4.20
2013,10,22,00,56,4.20
2013,10,22,00,57,4.20
2013,10,22,00,58,4.20
2013,10,22,00,59,4.20
2013,10,22,01,00,4.20
2013,10,22,01,01,4.20
2013,10,22,01,02,4.20
2013,10,22,01,03,4.20
2013,10,22,01,04,4.20
2013,10,22,01,05,4.20
2013,10,22,01,06,4.20
2013,10,22,01,07,4.20
2013,10,22,01,08,4.20
2013,10,22,01,09,4.20
2013,10,22,01,10,4.20
2013,10,22,01,11,4.20
2013,10,22,01,12,4.20
2013,10,22,01,13,4.20
2013,10,22,01,14,4.20
2013,10,22,01,15,4.20
2013,10,22,01,16,4.20
2013,10,22,01,17,4.20
2013,10,22,01,18,4.20
2013,10,22,01,19,4.20
2013,10,22,01,20,4.20
2013,10,22,01,21,4.20
2013,10,22,01,22,4.20
2013,10,22,01,23,4.20
2013,10,22,01,24,4.20
2013,10,22,01,25,4.10
2013,10,22,01,26,4.10
2013,10,22,01,27,4.10
2013,10,22,01,28,4.10
2013,10,22,01,29,4.10
2013,10,22,01,30,4.10
2013,10,22,01,31,4.10
2013,10,22,01,32,4.10
2013,10,22,01,33,4.10
2013,10,22,01,34,4.10
2013,10,22,01,35,4.00
2013,10,22,01,36,4.00
2013,10,22,01,37,4.00
2013,10,22,01,38,4.00
2013,10,22,01,39,4.00
2013,10,22,01,40,4.00
2013,10,22,01,41,4.00
2013,10,22,01,42,4.00
2013,10,22,01,43,3.90
2013,10,22,01,44,3.90
2013,10,22,01,45,3.90
2013,10,22,01,46,3.90
2013,10,22,01,47,3.80
2013,10,22,01,48,3.80
2013,10,22,01,49,3.80
2013,10,22,01,50,3.80
2013,10,22,01,51,3.80
2013,10,22,01,52,3.80
2013,10,22,01,53,3.70
2013,10,22,01,54,3.70
2013,10,22,01,55,3.70
2013,10,22,01,56,3.70
2013,10,22,01,57,3.70
2013,10,22,01,58,3.70
2013,10,22,01,59,3.70
2013,10,22,02,00,3.70
2013,10,22,02,01,3.70
2013,10,22,02,02,3.70
2013,10,22,02,03,3.60
2013,10,22,02,04,3.60
2013,10,22,02,05,3.60
2013,10,22,02,06,3.60
2013,10,22,02,07,3.60
2013,10,22,02,08,3.60
2013,10,22,02,09,3.60
2013,10,22,02,10,3.50
2013,10,22,02,11,3.50
2013,10,22,02,12,3.50
2013,10,22,02,13,3.50
2013,10,22,02,14,3.50
2013,10,22,02,15,3.50
2013,10,22,02,16,3.40
2013,10,22,02,17,3.40
2013,10,22,02,18,3.40
2013,10,22,02,19,3.40
2013,10,22,02,20,3.40
2013,10,22,02,21,3.40
2013,10,22,02,22,3.30
2013,10,22,02,23,3.30
2013,10,22,02,24,3.30
2013,10,22,02,25,3.30
2013,10,22,02,26,3.30
2013,10,22,02,27,3.30
2013,10,22,02,28,3.30
2013,10,22,02,29,3.30
2013,10,22,02,30,3.30
2013,10,22,02,31,3.20
2013,10,22,02,32,3.20
2013,10,22,02,33,3.20
2013,10,22,02,34,3.20
2013,10,22,02,35,3.20
2013,10,22,02,36,3.20
2013,10,22,02,37,3.20
2013,10,22,02,38,3.20
2013,10,22,02,39,3.20
2013,10,22,02,40,3.20
2013,10,22,02,41,3.20
2013,10,22,02,42,3.20
2013,10,22,02,43,3.10
2013,10,22,02,44,3.10
2013,10,22,02,45,3.10
2013,10,22,02,46,3.10
2013,10,22,02,47,3.10
2013,10,22,02,48,3.10
2013,10,22,02,49,3.00
2013,10,22,02,50,3.00
2013,10,22,02,51,3.00
2013,10,22,02,52,2.90
2013,10,22,02,53,2.90
2013,10,22,02,54,2.90
2013,10,22,02,55,2.90
2013,10,22,02,56,2.90
2013,10,22,02,57,2.90
2013,10,22,02,58,2.90
2013,10,22,02,59,2.90
2013,10,22,03,00,2.90
2013,10,22,03,01,2.90
2013,10,22,03,02,2.90
2013,10,22,03,06,2.90
2013,10,22,03,07,2.90
2013,10,22,03,08,2.90
2013,10,22,03,09,2.90
2013,10,22,03,10,2.90
2013,10,22,03,11,2.90
2013,10,22,03,12,2.90
2013,10,22,03,13,2.90
2013,10,22,03,14,2.90
2013,10,22,03,15,2.90
2013,10,22,03,16,2.90
2013,10,22,03,17,2.80
2013,10,22,03,18,2.80
2013,10,22,03,19,2.80
2013,10,22,03,20,2.80
2013,10,22,03,21,2.80
2013,10,22,03,22,2.80
2013,10,22,03,23,2.80
2013,10,22,03,24,2.80
2013,10,22,03,25,2.80
2013,10,22,03,26,2.80
2013,10,22,03,27,2.80
2013,10,22,03,28,2.80
2013,10,22,03,29,2.80
2013,10,22,03,30,2.80
2013,10,22,03,31,2.80
2013,10,22,03,32,2.80
2013,10,22,03,33,2.80
2013,10,22,03,34,2.80
2013,10,22,03,35,2.80
2013,10,22,03,36,2.80
2013,10,22,03,37,2.80
2013,10,22,03,38,2.80
2013,10,22,03,39,2.80
2013,10,22,03,40,2.80
2013,10,22,03,41,2.70
2013,10,22,03,42,2.70
2013,10,22,03,43,2.70
2013,10,22,03,44,2.70
2013,10,22,03,45,2.60
2013,10,22,03,46,2.60
2013,10,22,03,47,2.60
2013,10,22,03,48,2.60
2013,10,22,03,49,2.60
2013,10,22,03,50,2.60
2013,10,22,03,51,2.60
2013,10,22,03,52,2.60
2013,10,22,03,53,2.60
2013,10,22,03,54,2.60
2013,10,22,03,55,2.60
2013,10,22,03,56,2.60
2013,10,22,03,57,2.60
2013,10,22,03,58,2.60
2013,10,22,03,59,2.70
2013,10,22,04,00,2.70
2013,10,22,04,01,2.70
2013,10,22,04,02,2.70
2013,10,22,04,03,2.70
2013,10,22,04,04,2.70
2013,10,22,04,05,2.70
2013,10,22,04,06,2.70
2013,10,22,04,07,2.70
2013,10,22,04,08,2.70
2013,10,22,04,09,2.70
2013,10,22,04,10,2.60
2013,10,22,04,11,2.60
2013,10,22,04,12,2.60
2013,10,22,04,13,2.60
2013,10,22,04,14,2.60
2013,10,22,04,15,2.60
2013,10,22,04,16,2.50
2013,10,22,04,17,2.50
2013,10,22,04,18,2.50
2013,10,22,04,19,2.50
2013,10,22,04,20,2.50
2013,10,22,04,21,2.50
2013,10,22,04,22,2.50
2013,10,22,04,23,2.40
2013,10,22,04,24,2.40
2013,10,22,04,25,2.40
2013,10,22,04,26,2.40
2013,10,22,04,27,2.40
2013,10,22,04,28,2.40
2013,10,22,04,29,2.40
2013,10,22,04,30,2.40
2013,10,22,04,31,2.40
2013,10,22,04,32,2.40
2013,10,22,04,33,2.40
2013,10,22,04,34,2.40
2013,10,22,04,35,2.30
2013,10,22,04,36,2.30
2013,10,22,04,37,2.30
2013,10,22,04,38,2.30
2013,10,22,04,39,2.30
2013,10,22,04,40,2.30
2013,10,22,04,41,2.30
2013,10,22,04,42,2.30
2013,10,22,04,43,2.30
2013,10,22,04,44,2.20
2013,10,22,04,45,2.20
2013,10,22,04,46,2.20
2013,10,22,04,47,2.20
2013,10,22,04,48,2.20
2013,10,22,04,49,2.20
2013,10,22,04,50,2.20
2013,10,22,04,51,2.20
2013,10,22,04,52,2.20
2013,10,22,04,53,2.10
2013,10,22,04,54,2.10
2013,10,22,04,55,2.10
2013,10,22,04,56,2.10
2013,10,22,04,57,2.10
2013,10,22,04,58,2.10
2013,10,22,04,59,2.10
2013,10,22,05,00,2.00
2013,10,22,05,01,2.00
2013,10,22,05,02,2.00
2013,10,22,05,03,2.00
2013,10,22,05,04,2.00
2013,10,22,05,05,2.00
2013,10,22,05,06,2.00
2013,10,22,05,07,2.00
2013,10,22,05,08,2.00
2013,10,22,05,09,2.00
2013,10,22,05,10,2.00
2013,10,22,05,11,2.00
2013,10,22,05,12,2.00
2013,10,22,05,13,2.00
2013,10,22,05,14,2.00
2013,10,22,05,15,2.00
2013,10,22,05,16,2.00
2013,10,22,05,17,2.10
2013,10,22,05,18,2.10
2013,10,22,05,19,2.10
2013,10,22,05,20,2.10
2013,10,22,05,21,2.10
2013,10,22,05,22,2.10
2013,10,22,05,23,2.00
2013,10,22,05,24,2.00
2013,10,22,05,25,1.90
2013,10,22,05,26,1.90
2013,10,22,05,27,1.90
2013,10,22,05,28,1.90
2013,10,22,05,29,2.00
2013,10,22,05,30,2.00
2013,10,22,05,31,2.10
2013,10,22,05,32,2.10
2013,10,22,05,33,2.10
2013,10,22,05,34,2.10
2013,10,22,05,35,2.10
2013,10,22,05,36,2.10
2013,10,22,05,37,2.10
2013,10,22,05,38,2.10
2013,10,22,05,39,2.10
2013,10,22,05,40,2.10
2013,10,22,05,41,2.10
2013,10,22,05,42,2.10
2013,10,22,05,43,2.20
2013,10,22,05,44,2.20
2013,10,22,05,45,2.10
2013,10,22,05,46,2.10
2013,10,22,05,47,2.10
2013,10,22,05,48,2.10
2013,10,22,05,49,2.10
2013,10,22,05,50,2.10
2013,10,22,05,51,2.20
2013,10,22,05,52,2.20
2013,10,22,05,53,2.20
2013,10,22,05,54,2.20
2013,10,22,05,55,2.20
2013,10,22,05,56,2.20
2013,10,22,05,57,2.30
2013,10,22,05,58,2.30
2013,10,22,05,59,2.30
2013,10,22,06,00,2.30
2013,10,22,06,01,2.30
2013,10,22,06,02,2.40
2013,10,22,06,03,2.40
2013,10,22,06,04,2.40
2013,10,22,06,05,2.40
2013,10,22,06,06,2.30
2013,10,22,06,07,2.30
2013,10,22,06,08,2.30
2013,10,22,06,09,2.30
2013,10,22,06,10,2.20
2013,10,22,06,11,2.20
2013,10,22,06,12,2.20
2013,10,22,06,13,2.10
2013,10,22,06,14,2.10
2013,10,22,06,15,2.10
2013,10,22,06,16,2.00
2013,10,22,06,17,2.00
2013,10,22,06,18,2.00
2013,10,22,06,19,2.00
2013,10,22,06,20,2.00
2013,10,22,06,21,2.00
2013,10,22,06,22,2.00
2013,10,22,06,23,2.10
2013,10,22,06,24,2.10
2013,10,22,06,25,2.10
2013,10,22,06,26,2.10
2013,10,22,06,27,2.10
2013,10,22,06,28,2.10
2013,10,22,06,29,2.10
2013,10,22,06,30,2.20
2013,10,22,06,31,2.20
2013,10,22,06,32,2.20
2013,10,22,06,33,2.20
2013,10,22,06,34,2.20
2013,10,22,06,35,2.20
2013,10,22,06,36,2.20
2013,10,22,06,37,2.30
2013,10,22,06,38,2.30
2013,10,22,06,39,2.30
2013,10,22,06,40,2.30
2013,10,22,06,41,2.30
2013,10,22,06,42,2.30
2013,10,22,06,43,2.30
2013,10,22,06,44,2.30
2013,10,22,06,45,2.30
2013,10,22,06,46,2.30
2013,10,22,06,47,2.30
2013,10,22,06,48,2.30
2013,10,22,06,49,2.30
2013,10,22,06,50,2.40
2013,10,22,06,51,2.30
2013,10,22,06,52,2.30
2013,10,22,06,53,2.30
2013,10,22,06,54,2.30
2013,10,22,06,55,2.30
2013,10,22,06,56,2.30
2013,10,22,06,57,2.30
2013,10,22,06,58,2.30
2013,10,22,06,59,2.20
2013,10,22,07,00,2.20
2013,10,22,07,01,2.20
2013,10,22,07,02,2.20
2013,10,22,07,03,2.20
2013,10,22,07,04,2.20
2013,10,22,07,05,2.20
2013,10,22,07,06,2.20
2013,10,22,07,07,2.20
2013,10,22,07,08,2.20
2013,10,22,07,09,2.20
2013,10,22,07,10,2.20
2013,10,22,07,11,2.20
2013,10,22,07,12,2.20
2013,10,22,07,13,2.20
2013,10,22,07,14,2.20
2013,10,22,07,15,2.20
2013,10,22,07,16,2.10
2013,10,22,07,17,2.10
2013,10,22,07,18,2.10
2013,10,22,07,19,2.10
2013,10,22,07,20,2.10
2013,10,22,07,21,2.00
2013,10,22,07,22,2.10
2013,10,22,07,23,2.10
2013,10,22,07,24,2.10
2013,10,22,07,25,2.10
2013,10,22,07,26,2.10
2013,10,22,07,27,2.20
2013,10,22,07,28,2.20
2013,10,22,07,29,2.20
2013,10,22,07,30,2.20
2013,10,22,07,31,2.20
2013,10,22,07,32,2.10
2013,10,22,07,33,2.10
2013,10,22,07,34,2.10
2013,10,22,07,35,2.10
2013,10,22,07,36,2.10
2013,10,22,07,37,2.10
2013,10,22,07,38,2.00
2013,10,22,07,39,2.00
2013,10,22,07,40,2.00
2013,10,22,07,41,2.00
2013,10,22,07,42,2.10
2013,10,22,07,43,2.10
2013,10,22,07,44,2.10
2013,10,22,07,45,2.10
2013,10,22,07,46,2.10
2013,10,22,07,47,2.10
2013,10,22,07,48,2.10
2013,10,22,07,49,2.10
2013,10,22,07,50,2.10
2013,10,22,07,51,2.10
2013,10,22,07,52,2.10
2013,10,22,07,53,2.10
2013,10,22,07,54,2.10
2013,10,22,07,55,2.10
2013,10,22,07,56,2.10
2013,10,22,07,57,2.10
2013,10,22,07,58,2.10
2013,10,22,07,59,2.10
2013,10,22,08,00,2.10
2013,10,22,08,01,2.10
2013,10,22,08,02,2.10
2013,10,22,08,03,2.10
2013,10,22,08,04,2.10
2013,10,22,08,05,2.10
2013,10,22,08,06,2.10
2013,10,22,08,07,2.10
2013,10,22,08,08,2.10
2013,10,22,08,09,2.10
2013,10,22,08,10,2.10
2013,10,22,08,11,2.20
2013,10,22,08,12,2.20
2013,10,22,08,13,2.20
2013,10,22,08,14,2.20
2013,10,22,08,15,2.30
2013,10,22,08,16,2.30
2013,10,22,08,17,2.30
2013,10,22,08,18,2.30
2013,10,22,08,19,2.40
2013,10,22,08,20,2.40
2013,10,22,08,21,2.40
2013,10,22,08,22,2.40
2013,10,22,08,23,2.50
2013,10,22,08,24,2.50
2013,10,22,08,25,2.50
2013,10,22,08,26,2.60
2013,10,22,08,27,2.60
2013,10,22,08,28,2.70
2013,10,22,08,29,2.70
2013,10,22,08,30,2.70
2013,10,22,08,31,2.80
2013,10,22,08,32,2.80
2013,10,22,08,33,2.80
2013,10,22,08,34,2.80
2013,10,22,08,35,2.80
2013,10,22,08,36,2.80
2013,10,22,08,37,2.80
2013,10,22,08,38,2.80
2013,10,22,08,39,2.90
2013,10,22,08,40,2.90
2013,10,22,08,41,2.90
2013,10,22,08,42,3.00
2013,10,22,08,43,3.10
2013,10,22,08,44,3.20
2013,10,22,08,45,3.30
2013,10,22,08,46,3.40
2013,10,22,08,47,3.50
2013,10,22,08,48,3.60
2013,10,22,08,49,3.60
2013,10,22,08,50,3.70
2013,10,22,08,51,3.70
2013,10,22,08,52,3.80
2013,10,22,08,53,3.80
2013,10,22,08,54,3.90
2013,10,22,08,55,3.90
2013,10,22,08,56,4.00
2013,10,22,08,57,4.10
2013,10,22,08,58,4.10
2013,10,22,08,59,4.10
2013,10,22,09,00,4.20
2013,10,22,09,01,4.20
2013,10,22,09,02,4.30
2013,10,22,09,03,4.30
2013,10,22,09,04,4.40
2013,10,22,09,05,4.50
2013,10,22,09,06,4.60
2013,10,22,09,07,4.70
2013,10,22,09,08,4.70
2013,10,22,09,09,4.80
2013,10,22,09,10,4.90
2013,10,22,09,11,4.90
2013,10,22,09,12,5.00
2013,10,22,09,13,5.00
2013,10,22,09,14,5.00
2013,10,22,09,15,5.00
2013,10,22,09,16,5.00
2013,10,22,09,17,5.00
2013,10,22,09,18,5.00
2013,10,22,09,19,5.00
2013,10,22,09,20,5.00
2013,10,22,09,21,5.00
2013,10,22,09,22,5.00
2013,10,22,09,23,5.00
2013,10,22,09,24,5.10
2013,10,22,09,25,5.10
2013,10,22,09,26,5.10
2013,10,22,09,27,5.20
2013,10,22,09,28,5.20
2013,10,22,09,29,5.20
2013,10,22,09,30,5.30
2013,10,22,09,31,5.30
2013,10,22,09,32,5.40
2013,10,22,09,33,5.40
2013,10,22,09,34,5.50
2013,10,22,09,35,5.60
2013,10,22,09,36,5.70
2013,10,22,09,37,5.70
2013,10,22,09,38,5.80
2013,10,22,09,39,5.80
2013,10,22,09,40,5.90
2013,10,22,09,41,5.90
2013,10,22,09,42,5.90
2013,10,22,09,43,5.90
2013,10,22,09,44,5.90
2013,10,22,09,45,5.90
2013,10,22,09,46,5.90
2013,10,22,09,47,6.00
2013,10,22,09,48,6.10
2013,10,22,09,49,6.10
2013,10,22,09,50,6.20
2013,10,22,09,51,6.20
2013,10,22,09,52,6.20
2013,10,22,09,53,6.20
2013,10,22,09,54,6.20
2013,10,22,09,55,6.20
2013,10,22,09,56,6.20
2013,10,22,09,57,6.30
2013,10,22,09,58,6.40
2013,10,22,09,59,6.50
2013,10,22,10,00,6.50
2013,10,22,10,01,6.60
2013,10,22,10,02,6.60
2013,10,22,10,03,6.50
2013,10,22,10,04,6.50
2013,10,22,10,05,6.50
2013,10,22,10,06,6.50
2013,10,22,10,07,6.50
2013,10,22,10,08,6.60
2013,10,22,10,09,6.60
2013,10,22,10,10,6.60
2013,10,22,10,11,6.70
2013,10,22,10,12,6.80
2013,10,22,10,13,6.80
2013,10,22,10,14,6.80
2013,10,22,10,15,6.80
2013,10,22,10,16,6.90
2013,10,22,10,17,7.00
2013,10,22,10,18,7.00
2013,10,22,10,19,7.10
2013,10,22,10,20,7.10
2013,10,22,10,21,7.20
2013,10,22,10,22,7.20
2013,10,22,10,23,7.20
2013,10,22,10,24,7.30
2013,10,22,10,25,7.30
2013,10,22,10,26,7.30
2013,10,22,10,27,7.30
2013,10,22,10,28,7.40
2013,10,22,10,29,7.40
2013,10,22,10,30,7.40
2013,10,22,10,31,7.50
2013,10,22,10,32,7.50
2013,10,22,10,33,7.60
2013,10,22,10,34,7.60
2013,10,22,10,35,7.60
2013,10,22,10,36,7.70
2013,10,22,10,37,7.70
2013,10,22,10,38,7.70
2013,10,22,10,39,7.70
2013,10,22,10,40,7.70
2013,10,22,10,41,7.70
2013,10,22,10,42,7.80
2013,10,22,10,43,7.90
2013,10,22,10,44,7.90
2013,10,22,10,45,7.90
2013,10,22,10,46,8.00
2013,10,22,10,47,8.00
2013,10,22,10,48,8.10
2013,10,22,10,49,8.20
2013,10,22,10,50,8.30
2013,10,22,10,51,8.40
2013,10,22,10,52,8.50
2013,10,22,10,53,8.50
2013,10,22,10,54,8.60
2013,10,22,10,55,8.60
2013,10,22,10,56,8.60
2013,10,22,10,57,8.60
2013,10,22,10,58,8.60
2013,10,22,10,59,8.60
2013,10,22,11,00,8.60
2013,10,22,11,01,8.60
2013,10,22,11,02,8.60
2013,10,22,11,03,8.70
2013,10,22,11,04,8.80
2013,10,22,11,05,8.80
2013,10,22,11,06,8.90
2013,10,22,11,07,9.00
2013,10,22,11,08,9.10
2013,10,22,11,09,9.20
2013,10,22,11,10,9.30
2013,10,22,11,11,9.40
2013,10,22,11,12,9.50
2013,10,22,11,13,9.60
2013,10,22,11,14,9.70
2013,10,22,11,15,9.80
2013,10,22,11,16,9.90
2013,10,22,11,17,9.90
2013,10,22,11,18,9.90
2013,10,22,11,19,9.90
2013,10,22,11,20,10.00
2013,10,22,11,21,10.00
2013,10,22,11,22,9.90
2013,10,22,11,23,10.00
2013,10,22,11,24,10.00
2013,10,22,11,25,10.10
2013,10,22,11,26,10.10
2013,10,22,11,27,10.20
2013,10,22,11,28,10.10
2013,10,22,11,29,10.10
2013,10,22,11,30,10.00
2013,10,22,11,31,10.00
2013,10,22,11,32,9.90
2013,10,22,11,33,9.90
2013,10,22,11,34,10.00
2013,10,22,11,35,10.00
2013,10,22,11,36,10.00
2013,10,22,11,37,10.00
2013,10,22,11,38,10.00
2013,10,22,11,39,10.00
2013,10,22,11,40,10.10
2013,10,22,11,41,10.10
2013,10,22,11,42,10.20
2013,10,22,11,43,10.30
2013,10,22,11,44,10.40
2013,10,22,11,45,10.40
2013,10,22,11,46,10.40
2013,10,22,11,47,10.50
2013,10,22,11,48,10.50
2013,10,22,11,49,10.60
2013,10,22,11,50,10.60
2013,10,22,11,51,10.70
2013,10,22,11,52,10.70
2013,10,22,11,53,10.80
2013,10,22,11,54,10.80
2013,10,22,11,55,10.90
2013,10,22,11,56,10.90
2013,10,22,11,57,10.90
2013,10,22,11,58,11.00
2013,10,22,11,59,11.10
2013,10,22,12,00,11.20
2013,10,22,12,01,11.30
2013,10,22,12,02,11.30
2013,10,22,12,03,11.40
2013,10,22,12,04,11.40
2013,10,22,12,05,11.40
2013,10,22,12,06,11.40
2013,10,22,12,07,11.40
2013,10,22,12,08,11.40
2013,10,22,12,09,11.50
2013,10,22,12,10,11.50
2013,10,22,12,11,11.60
2013,10,22,12,12,11.70
2013,10,22,12,13,11.90
2013,10,22,12,14,11.90
2013,10,22,12,15,12.00
2013,10,22,12,16,12.10
2013,10,22,12,17,12.20
2013,10,22,12,18,12.30
2013,10,22,12,19,12.30
2013,10,22,12,20,12.40
2013,10,22,12,21,12.50
2013,10,22,12,22,12.50
2013,10,22,12,23,12.60
2013,10,22,12,24,12.70
2013,10,22,12,25,12.80
2013,10,22,12,26,12.80
2013,10,22,12,27,12.80
2013,10,22,12,28,12.90
2013,10,22,12,29,13.00
2013,10,22,12,30,13.10
2013,10,22,12,31,13.20
2013,10,22,12,32,13.30
2013,10,22,12,33,13.30
2013,10,22,12,34,13.30
2013,10,22,12,35,13.30
2013,10,22,12,36,13.30
2013,10,22,12,37,13.30
2013,10,22,12,38,13.30
2013,10,22,12,39,13.20
2013,10,22,12,40,13.10
2013,10,22,12,41,13.10
2013,10,22,12,42,13.10
2013,10,22,12,43,13.20
2013,10,22,12,44,13.20
2013,10,22,12,45,13.20
2013,10,22,12,46,13.30
2013,10,22,12,47,13.40
2013,10,22,12,48,13.40
2013,10,22,12,49,13.50
2013,10,22,12,50,13.60
2013,10,22,12,51,13.60
2013,10,22,12,52,13.70
2013,10,22,12,53,13.80
2013,10,22,12,54,13.80
2013,10,22,12,55,13.90
2013,10,22,12,56,13.90
2013,10,22,12,57,13.90
2013,10,22,12,58,13.90
2013,10,22,12,59,14.00
2013,10,22,13,00,14.00
2013,10,22,13,01,14.00
2013,10,22,13,02,14.00
2013,10,22,13,03,14.00
2013,10,22,13,04,14.00
2013,10,22,13,05,14.00
2013,10,22,13,06,14.00
2013,10,22,13,07,13.90
2013,10,22,13,08,13.90
2013,10,22,13,09,13.90
2013,10,22,13,10,13.80
2013,10,22,13,11,13.80
2013,10,22,13,12,13.80
2013,10,22,13,13,13.80
2013,10,22,13,14,13.80
2013,10,22,13,15,13.80
2013,10,22,13,16,13.90
2013,10,22,13,17,13.90
2013,10,22,13,18,13.90
2013,10,22,13,19,13.80
2013,10,22,13,20,13.80
2013,10,22,13,21,13.90
2013,10,22,13,22,13.90
2013,10,22,13,23,13.90
2013,10,22,13,24,14.00
2013,10,22,13,25,14.10
2013,10,22,13,26,14.20
2013,10,22,13,27,14.30
2013,10,22,13,28,14.40
2013,10,22,13,29,14.50
2013,10,22,13,30,14.60
2013,10,22,13,31,14.70
2013,10,22,13,32,14.80
2013,10,22,13,33,14.90
2013,10,22,13,34,15.00
2013,10,22,13,35,15.00
2013,10,22,13,36,15.00
2013,10,22,13,37,15.00
2013,10,22,13,38,15.10
2013,10,22,13,39,15.20
2013,10,22,13,40,15.30
2013,10,22,13,41,15.30
2013,10,22,13,42,15.20
2013,10,22,13,43,15.20
2013,10,22,13,44,15.00
2013,10,22,13,45,15.00
2013,10,22,13,46,15.00
2013,10,22,13,47,15.00
2013,10,22,13,48,14.90
2013,10,22,13,49,14.90
2013,10,22,13,50,14.90
2013,10,22,13,51,14.90
2013,10,22,13,52,14.90
2013,10,22,13,53,14.90
2013,10,22,13,54,14.90
2013,10,22,13,55,14.90
2013,10,22,13,56,14.90
2013,10,22,13,57,15.00
2013,10,22,13,58,15.00
2013,10,22,13,59,15.00
2013,10,22,14,00,15.00
2013,10,22,14,01,15.00
2013,10,22,14,02,15.00
2013,10,22,14,03,15.00
2013,10,22,14,04,15.00
2013,10,22,14,05,15.00
2013,10,22,14,06,15.00
2013,10,22,14,07,15.00
2013,10,22,14,08,15.00
2013,10,22,14,09,15.00
2013,10,22,14,10,15.10
2013,10,22,14,11,15.10
2013,10,22,14,12,15.10
2013,10,22,14,13,15.10
2013,10,22,14,14,15.10
2013,10,22,14,15,15.00
2013,10,22,14,16,15.00
2013,10,22,14,17,15.00
2013,10,22,14,18,15.00
2013,10,22,14,19,15.00
2013,10,22,14,20,15.00
2013,10,22,14,21,15.00
2013,10,22,14,22,15.00
2013,10,22,14,23,15.00
2013,10,22,14,24,15.00
2013,10,22,14,25,15.00
2013,10,22,14,26,15.00
2013,10,22,14,27,15.00
2013,10,22,14,28,15.00
2013,10,22,14,29,15.00
2013,10,22,14,30,15.00
2013,10,22,14,31,15.00
2013,10,22,14,32,15.00
2013,10,22,14,33,15.00
2013,10,22,14,34,15.00
2013,10,22,14,35,15.00
2013,10,22,14,36,15.00
2013,10,22,14,37,15.00
2013,10,22,14,38,15.00
2013,10,22,14,39,15.00
2013,10,22,14,40,15.00
2013,10,22,14,41,15.00
2013,10,22,14,42,15.00
2013,10,22,14,43,15.00
2013,10,22,14,44,15.00
2013,10,22,14,45,15.00
2013,10,22,14,46,15.00
2013,10,22,14,47,15.00
2013,10,22,14,48,15.00
2013,10,22,14,49,15.00
2013,10,22,14,50,15.00
2013,10,22,14,51,15.10
2013,10,22,14,52,15.10
2013,10,22,14,53,15.20
2013,10,22,14,54,15.20
2013,10,22,14,55,15.20
2013,10,22,14,56,15.30
2013,10,22,14,57,15.30
2013,10,22,14,58,15.40
2013,10,22,14,59,15.40
2013,10,22,15,00,15.40
2013,10,22,15,01,15.40
2013,10,22,15,02,15.30
2013,10,22,15,03,15.40
2013,10,22,15,04,15.50
2013,10,22,15,05,15.60
2013,10,22,15,06,15.70
2013,10,22,15,07,15.80
2013,10,22,15,08,16.00
2013,10,22,15,09,16.00
2013,10,22,15,10,16.10
2013,10,22,15,11,16.20
2013,10,22,15,12,16.20
2013,10,22,15,13,16.20
2013,10,22,15,14,16.20
2013,10,22,15,15,16.20
2013,10,22,15,16,16.10
2013,10,22,15,17,16.10
2013,10,22,15,18,16.00
2013,10,22,15,19,16.00
2013,10,22,15,20,16.00
2013,10,22,15,21,15.90
2013,10,22,15,22,16.00
2013,10,22,15,23,16.00
2013,10,22,15,24,16.10
2013,10,22,15,25,16.10
2013,10,22,15,26,16.10
2013,10,22,15,27,16.20
2013,10,22,15,28,16.20
2013,10,22,15,29,16.30
2013,10,22,15,30,16.30
2013,10,22,15,31,16.40
2013,10,22,15,32,16.40
2013,10,22,15,33,16.50
2013,10,22,15,34,16.50
2013,10,22,15,35,16.50
2013,10,22,15,36,16.50
2013,10,22,15,37,16.50
2013,10,22,15,38,16.50
2013,10,22,15,39,16.50
2013,10,22,15,40,16.50
2013,10,22,15,41,16.50
2013,10,22,15,42,16.60
2013,10,22,15,43,16.70
2013,10,22,15,44,16.80
2013,10,22,15,45,16.80
2013,10,22,15,46,16.80
2013,10,22,15,47,16.80
2013,10,22,15,48,16.70
2013,10,22,15,49,16.60
2013,10,22,15,50,16.50
2013,10,22,15,51,16.40
2013,10,22,15,52,16.30
2013,10,22,15,53,16.20
2013,10,22,15,54,16.10
2013,10,22,15,55,16.00
2013,10,22,15,56,15.90
2013,10,22,15,57,15.90
2013,10,22,15,58,15.80
2013,10,22,15,59,15.80
2013,10,22,16,00,15.80
2013,10,22,16,01,15.80
2013,10,22,16,02,15.80
2013,10,22,16,03,15.80
2013,10,22,16,04,15.80
2013,10,22,16,05,15.80
2013,10,22,16,06,15.80
2013,10,22,16,07,15.80
2013,10,22,16,08,15.80
2013,10,22,16,09,15.80
2013,10,22,16,10,15.80
2013,10,22,16,11,15.80
2013,10,22,16,12,15.90
2013,10,22,16,13,15.90
2013,10,22,16,14,15.90
2013,10,22,16,15,15.90
2013,10,22,16,16,15.80
2013,10,22,16,17,15.80
2013,10,22,16,18,15.70
2013,10,22,16,19,15.60
2013,10,22,16,20,15.50
2013,10,22,16,21,15.40
2013,10,22,16,22,15.30
2013,10,22,16,23,15.30
2013,10,22,16,24,15.20
2013,10,22,16,25,15.10
2013,10,22,16,26,15.10
2013,10,22,16,27,15.00
2013,10,22,16,28,15.00
2013,10,22,16,29,15.00
2013,10,22,16,30,15.00
2013,10,22,16,31,15.00
2013,10,22,16,32,15.00
2013,10,22,16,33,15.00
2013,10,22,16,34,14.90
2013,10,22,16,35,14.80
2013,10,22,16,36,14.80
2013,10,22,16,37,14.80
2013,10,22,16,38,14.70
2013,10,22,16,39,14.70
2013,10,22,16,40,14.70
2013,10,22,16,41,14.60
2013,10,22,16,42,14.60
2013,10,22,16,43,14.60
2013,10,22,16,44,14.60
2013,10,22,16,45,14.60
2013,10,22,16,46,14.50
2013,10,22,16,47,14.50
2013,10,22,16,48,14.40
2013,10,22,16,49,14.40
2013,10,22,16,50,14.40
2013,10,22,16,51,14.30
2013,10,22,16,52,14.30
2013,10,22,16,53,14.30
2013,10,22,16,54,14.30
2013,10,22,16,55,14.30
2013,10,22,16,56,14.30
2013,10,22,16,57,14.40
2013,10,22,16,58,14.40
2013,10,22,16,59,14.40
2013,10,22,17,00,14.40
2013,10,22,17,01,14.40
2013,10,22,17,02,14.40
2013,10,22,17,03,14.40
2013,10,22,17,04,14.40
2013,10,22,17,05,14.30
2013,10,22,17,06,14.30
2013,10,22,17,07,14.30
2013,10,22,17,08,14.20
2013,10,22,17,09,14.20
2013,10,22,17,10,14.20
2013,10,22,17,11,14.20
2013,10,22,17,12,14.20
2013,10,22,17,13,14.20
2013,10,22,17,14,14.20
2013,10,22,17,15,14.20
2013,10,22,17,16,14.10
2013,10,22,17,17,14.10
2013,10,22,17,18,14.10
2013,10,22,17,19,14.10
2013,10,22,17,20,14.10
2013,10,22,17,21,14.10
2013,10,22,17,22,14.00
2013,10,22,17,23,14.00
2013,10,22,17,24,14.00
2013,10,22,17,25,13.90
2013,10,22,17,26,13.90
2013,10,22,17,27,13.80
2013,10,22,17,28,13.80
2013,10,22,17,29,13.70
2013,10,22,17,30,13.60
2013,10,22,17,31,13.50
2013,10,22,17,32,13.40
2013,10,22,17,33,13.30
2013,10,22,17,34,13.20
2013,10,22,17,35,13.20
2013,10,22,17,36,13.10
2013,10,22,17,37,13.00
2013,10,22,17,38,13.00
2013,10,22,17,39,12.90
2013,10,22,17,40,12.90
2013,10,22,17,41,12.80
2013,10,22,17,42,12.80
2013,10,22,17,43,12.70
2013,10,22,17,44,12.70
2013,10,22,17,45,12.60
2013,10,22,17,46,12.50
2013,10,22,17,47,12.50
2013,10,22,17,48,12.40
2013,10,22,17,49,12.40
2013,10,22,17,50,12.30
2013,10,22,17,51,12.20
2013,10,22,17,52,12.20